Precipitable_Water
0.21 0.17 0.18 0.20 0.23 0.26 0.29 0.33 0.38 0.43 0.46 0.48 0.49 0.48 0.45 0.43 0.46 0.52 0.57 0.70 0.72 0.67 0.62 0.66 0.71 0.76 0.78 0.80 0.95 0.98 0.99 0.96 0.97 0.98 1.01 1.03 0.99 0.96 0.95 0.96 0.96 0.94 0.87 0.92 0.95 0.97 1.02 1.05 1.10 1.14 1.15 1.19 1.23 1.27 1.29 1.30 1.33 1.38 1.37 1.38 1.34 1.43 1.46 1.44 1.44 1.42 1.38 1.33 1.35 1.37 1.36 1.34 1.41 1.40 1.43 1.46 1.54 1.55 1.61 1.71 1.71 1.69 1.72 1.77 1.73 1.77
0.19 0.15 0.17 0.20 0.24 0.26 0.29 0.33 0.36 0.41 0.44 0.43 0.44 0.43 0.41 0.43 0.45 0.53 0.60 0.73 0.76 0.62 0.63 0.68 0.68 0.70 0.78 0.83 0.93 1.00 0.95 0.89 0.91 0.94 0.98 1.00 1.02 0.98 0.94 0.94 0.97 1.00 1.06 1.03 0.97 0.97 1.01 1.05 1.08 1.12 1.13 1.15 1.12 1.18 1.23 1.24 1.29 1.35 1.38 1.35 1.36 1.43 1.46 1.44 1.45 1.45 1.42 1.40 1.40 1.37 1.35 1.36 1.44 1.48 1.43 1.41 1.47 1.51 1.60 1.69 1.66 1.62 1.63 1.66 1.64 1.69
0.14 0.13 0.15 0.19 0.24 0.27 0.29 0.31 0.35 0.38 0.40 0.42 0.41 0.40 0.40 0.41 0.49 0.62 0.70 0.75 0.78 0.66 0.61 0.70 0.68 0.68 0.75 0.82 0.91 0.93 0.92 0.93 0.96 0.96 0.98 1.02 1.03 1.03 0.98 0.96 0.98 1.01 1.02 1.03 0.99 0.94 0.94 0.99 1.05 1.09 1.11 1.13 1.16 1.20 1.22 1.27 1.31 1.34 1.35 1.34 1.36 1.39 1.42 1.45 1.46 1.45 1.40 1.44 1.47 1.44 1.44 1.45 1.48 1.49 1.49 1.47 1.50 1.57 1.57 1.65 1.66 1.58 1.54 1.55 1.52 1.53
0.10 0.12 0.16 0.19 0.22 0.24 0.27 0.31 0.34 0.36 0.39 0.40 0.41 0.39 0.37 0.43 0.44 0.50 0.64 0.68 0.71 0.65 0.61 0.64 0.62 0.69 0.80 0.82 0.81 0.90 0.92 0.94 0.98 0.99 1.01 1.06 1.04 1.03 1.00 0.98 0.99 1.01 1.01 0.98 0.97 0.95 0.92 0.95 0.98 1.05 1.07 1.11 1.15 1.19 1.22 1.24 1.26 1.32 1.32 1.33 1.34 1.36 1.40 1.44 1.47 1.43 1.44 1.49 1.52 1.51 1.50 1.52 1.49 1.41 1.45 1.44 1.50 1.54 1.58 1.54 1.61 1.53 1.52 1.50 1.47 1.45
0.11 0.14 0.17 0.19 0.22 0.24 0.26 0.28 0.29 0.31 0.33 0.39 0.40 0.39 0.39 0.41 0.45 0.54 0.57 0.62 0.69 0.72 0.71 0.69 0.64 0.64 0.68 0.68 0.70 0.80 0.89 0.90 0.94 0.97 0.98 1.03 1.08 1.12 1.13 1.10 1.07 1.03 1.05 1.02 1.02 1.02 0.99 0.94 0.93 0.96 1.02 1.11 1.12 1.14 1.17 1.20 1.22 1.26 1.27 1.31 1.34 1.34 1.36 1.41 1.45 1.44 1.43 1.45 1.45 1.48 1.49 1.48 1.47 1.43 1.40 1.41 1.41 1.44 1.46 1.45 1.45 1.48 1.46 1.42 1.40 1.39
0.14 0.17 0.19 0.17 0.21 0.24 0.25 0.26 0.29 0.29 0.30 0.34 0.40 0.41 0.41 0.44 0.45 0.51 0.55 0.61 0.56 0.56 0.65 0.63 0.52 0.48 0.59 0.63 0.64 0.72 0.81 0.80 0.86 0.87 0.89 0.95 1.00 1.05 1.06 1.08 1.13 1.13 1.15 1.09 1.04 1.03 1.04 0.99 0.96 0.98 1.03 1.06 1.09 1.10 1.15 1.22 1.25 1.27 1.29 1.32 1.34 1.35 1.37 1.37 1.40 1.43 1.41 1.38 1.37 1.36 1.29 1.22 1.20 1.18 1.19 1.14 1.16 1.25 1.25 1.24 1.34 1.40 1.41 1.41 1.42 1.39
0.16 0.20 0.18 0.18 0.19 0.21 0.23 0.24 0.28 0.30 0.29 0.31 0.35 0.42 0.42 0.43 0.48 0.50 0.52 0.54 0.47 0.42 0.58 0.67 0.48 0.41 0.52 0.54 0.60 0.69 0.71 0.76 0.83 0.80 0.84 0.90 0.94 0.97 1.00 1.06 1.07 1.10 1.13 1.18 1.16 1.13 1.06 1.04 1.01 1.01 1.03 1.05 1.04 1.09 1.17 1.22 1.26 1.28 1.30 1.31 1.33 1.33 1.34 1.37 1.38 1.41 1.40 1.35 1.36 1.31 1.27 1.25 1.21 1.14 1.17 1.22 1.25 1.22 1.24 1.26 1.26 1.30 1.38 1.39 1.35 1.35
0.19 0.18 0.17 0.17 0.17 0.19 0.21 0.22 0.27 0.29 0.29 0.28 0.39 0.42 0.43 0.40 0.41 0.45 0.49 0.50 0.50 0.56 0.61 0.66 0.57 0.44 0.44 0.51 0.61 0.71 0.68 0.71 0.76 0.77 0.80 0.86 0.90 0.91 0.95 1.01 1.06 1.09 1.13 1.15 1.14 1.16 1.12 1.08 1.03 1.00 1.04 1.08 1.07 1.12 1.18 1.20 1.24 1.26 1.27 1.29 1.30 1.33 1.33 1.37 1.39 1.38 1.37 1.29 1.29 1.28 1.27 1.26 1.23 1.20 1.17 1.20 1.18 1.23 1.26 1.25 1.26 1.33 1.39 1.40 1.40 1.38
0.18 0.14 0.15 0.15 0.16 0.18 0.19 0.22 0.26 0.30 0.29 0.31 0.39 0.41 0.40 0.40 0.40 0.41 0.43 0.46 0.48 0.47 0.46 0.57 0.60 0.46 0.42 0.53 0.74 0.74 0.64 0.67 0.67 0.71 0.77 0.80 0.86 0.91 0.93 0.96 1.04 1.09 1.11 1.13 1.14 1.13 1.13 1.09 1.07 1.06 1.07 1.11 1.14 1.18 1.19 1.20 1.23 1.27 1.29 1.30 1.33 1.32 1.32 1.36 1.38 1.37 1.36 1.32 1.30 1.29 1.28 1.23 1.24 1.25 1.23 1.24 1.25 1.27 1.27 1.25 1.33 1.35 1.38 1.40 1.40 1.41
0.21 0.17 0.15 0.14 0.15 0.17 0.20 0.22 0.25 0.28 0.29 0.35 0.38 0.40 0.41 0.42 0.40 0.40 0.41 0.42 0.45 0.43 0.40 0.49 0.57 0.44 0.40 0.49 0.60 0.70 0.62 0.60 0.62 0.68 0.72 0.78 0.80 0.85 0.90 0.94 1.00 1.08 1.12 1.12 1.13 1.14 1.16 1.15 1.14 1.14 1.12 1.13 1.17 1.21 1.22 1.24 1.27 1.29 1.31 1.30 1.29 1.29 1.33 1.36 1.38 1.37 1.36 1.34 1.32 1.27 1.26 1.21 1.22 1.26 1.27 1.27 1.25 1.26 1.31 1.27 1.31 1.34 1.35 1.36 1.34 1.35
0.25 0.23 0.19 0.15 0.14 0.17 0.21 0.23 0.24 0.26 0.32 0.34 0.37 0.35 0.38 0.39 0.38 0.39 0.40 0.42 0.42 0.36 0.42 0.48 0.53 0.51 0.36 0.42 0.49 0.60 0.56 0.55 0.58 0.68 0.76 0.79 0.82 0.84 0.88 0.92 0.95 1.00 1.06 1.08 1.10 1.13 1.16 1.17 1.12 1.14 1.13 1.13 1.15 1.19 1.24 1.24 1.26 1.28 1.29 1.29 1.27 1.29 1.34 1.36 1.37 1.37 1.35 1.36 1.34 1.28 1.26 1.23 1.21 1.24 1.25 1.21 1.21 1.26 1.27 1.24 1.25 1.31 1.34 1.36 1.30 1.31
0.26 0.23 0.19 0.16 0.16 0.17 0.20 0.22 0.26 0.28 0.31 0.31 0.32 0.34 0.38 0.38 0.41 0.39 0.39 0.45 0.38 0.35 0.45 0.47 0.46 0.55 0.38 0.37 0.46 0.58 0.66 0.63 0.60 0.59 0.61 0.70 0.72 0.73 0.80 0.86 0.93 0.98 1.02 1.07 1.08 1.09 1.14 1.16 1.15 1.14 1.13 1.14 1.16 1.17 1.19 1.22 1.25 1.26 1.28 1.28 1.26 1.30 1.32 1.36 1.38 1.38 1.37 1.37 1.35 1.32 1.30 1.27 1.26 1.26 1.24 1.20 1.19 1.24 1.22 1.23 1.22 1.28 1.36 1.36 1.32 1.30
0.22 0.22 0.21 0.19 0.19 0.16 0.17 0.19 0.25 0.26 0.28 0.28 0.30 0.33 0.32 0.33 0.34 0.30 0.34 0.31 0.33 0.34 0.42 0.47 0.45 0.45 0.44 0.43 0.50 0.53 0.61 0.64 0.63 0.58 0.55 0.58 0.75 0.82 0.81 0.80 0.87 0.95 1.02 1.05 1.07 1.09 1.11 1.11 1.12 1.11 1.10 1.13 1.15 1.15 1.17 1.19 1.23 1.26 1.27 1.27 1.24 1.25 1.31 1.33 1.37 1.36 1.36 1.36 1.34 1.33 1.31 1.30 1.31 1.28 1.25 1.24 1.25 1.28 1.28 1.28 1.26 1.27 1.30 1.28 1.25 1.26
0.20 0.26 0.24 0.21 0.21 0.17 0.17 0.16 0.17 0.21 0.24 0.26 0.26 0.29 0.29 0.28 0.28 0.25 0.28 0.32 0.33 0.36 0.41 0.45 0.49 0.40 0.45 0.49 0.55 0.53 0.56 0.59 0.59 0.56 0.55 0.58 0.61 0.77 0.83 0.82 0.83 0.90 0.97 1.01 1.05 1.06 1.08 1.10 1.12 1.12 1.09 1.08 1.13 1.17 1.19 1.21 1.22 1.25 1.23 1.25 1.22 1.23 1.30 1.33 1.34 1.35 1.34 1.34 1.34 1.34 1.32 1.32 1.32 1.28 1.27 1.29 1.29 1.32 1.32 1.34 1.29 1.28 1.27 1.28 1.26 1.28
0.16 0.17 0.19 0.21 0.17 0.21 0.16 0.15 0.17 0.21 0.25 0.25 0.27 0.28 0.29 0.30 0.29 0.25 0.27 0.26 0.26 0.31 0.37 0.45 0.41 0.35 0.34 0.38 0.52 0.56 0.60 0.56 0.51 0.50 0.53 0.57 0.61 0.66 0.77 0.85 0.83 0.83 0.89 0.96 0.99 1.01 1.03 1.07 1.10 1.10 1.09 1.09 1.10 1.14 1.18 1.21 1.21 1.22 1.21 1.22 1.20 1.22 1.28 1.29 1.30 1.33 1.30 1.31 1.32 1.33 1.33 1.33 1.34 1.31 1.31 1.33 1.37 1.36 1.34 1.38 1.34 1.33 1.36 1.37 1.38 1.38
0.18 0.17 0.21 0.22 0.21 0.22 0.17 0.16 0.17 0.21 0.25 0.26 0.26 0.28 0.29 0.29 0.38 0.30 0.31 0.30 0.30 0.32 0.33 0.38 0.36 0.39 0.38 0.50 0.65 0.62 0.56 0.54 0.52 0.49 0.53 0.54 0.59 0.64 0.66 0.71 0.77 0.81 0.84 0.89 0.93 0.98 1.01 1.06 1.09 1.09 1.10 1.11 1.11 1.11 1.14 1.16 1.19 1.20 1.20 1.21 1.22 1.22 1.27 1.30 1.30 1.29 1.29 1.30 1.32 1.31 1.29 1.32 1.35 1.35 1.36 1.38 1.43 1.42 1.41 1.41 1.34 1.34 1.35 1.36 1.38 1.40
0.22 0.18 0.21 0.25 0.23 0.19 0.18 0.17 0.16 0.20 0.18 0.25 0.26 0.23 0.26 0.35 0.37 0.34 0.35 0.36 0.35 0.35 0.28 0.38 0.41 0.40 0.44 0.52 0.55 0.53 0.51 0.49 0.49 0.49 0.48 0.48 0.53 0.61 0.59 0.63 0.71 0.77 0.81 0.84 0.88 0.94 1.00 1.05 1.07 1.08 1.10 1.12 1.11 1.11 1.11 1.14 1.17 1.17 1.20 1.22 1.23 1.25 1.29 1.30 1.29 1.28 1.30 1.33 1.31 1.30 1.30 1.33 1.34 1.35 1.33 1.36 1.41 1.42 1.42 1.42 1.38 1.38 1.39 1.38 1.34 1.35
0.20 0.20 0.24 0.22 0.19 0.20 0.22 0.19 0.16 0.17 0.21 0.27 0.23 0.25 0.32 0.37 0.38 0.35 0.29 0.34 0.31 0.28 0.26 0.33 0.37 0.38 0.36 0.31 0.45 0.45 0.42 0.43 0.44 0.45 0.45 0.50 0.56 0.55 0.56 0.58 0.62 0.68 0.76 0.83 0.87 0.93 0.98 1.00 1.03 1.07 1.11 1.13 1.12 1.10 1.11 1.13 1.18 1.22 1.24 1.24 1.22 1.23 1.21 1.27 1.29 1.28 1.29 1.29 1.30 1.31 1.33 1.34 1.35 1.36 1.36 1.39 1.41 1.41 1.40 1.41 1.41 1.42 1.43 1.38 1.35 1.38
0.27 0.19 0.21 0.22 0.20 0.20 0.21 0.18 0.17 0.17 0.18 0.22 0.24 0.30 0.26 0.27 0.26 0.35 0.34 0.28 0.28 0.23 0.22 0.27 0.32 0.35 0.38 0.35 0.40 0.41 0.41 0.41 0.43 0.44 0.44 0.45 0.52 0.49 0.52 0.56 0.60 0.67 0.72 0.77 0.84 0.91 0.97 1.01 1.03 1.06 1.08 1.13 1.18 1.18 1.14 1.14 1.19 1.25 1.28 1.29 1.27 1.20 1.20 1.25 1.31 1.33 1.34 1.35 1.34 1.35 1.35 1.35 1.37 1.40 1.40 1.42 1.44 1.41 1.36 1.36 1.39 1.39 1.44 1.43 1.40 1.40
0.29 0.18 0.19 0.24 0.21 0.21 0.19 0.16 0.13 0.14 0.17 0.19 0.25 0.28 0.32 0.29 0.28 0.29 0.32 0.31 0.31 0.27 0.24 0.22 0.29 0.29 0.39 0.37 0.41 0.42 0.42 0.42 0.42 0.43 0.43 0.46 0.49 0.50 0.50 0.54 0.59 0.63 0.66 0.70 0.77 0.84 0.91 0.96 1.00 1.04 1.07 1.09 1.14 1.19 1.22 1.21 1.23 1.24 1.29 1.32 1.31 1.30 1.27 1.28 1.30 1.32 1.31 1.36 1.37 1.37 1.39 1.40 1.40 1.40 1.40 1.42 1.42 1.39 1.35 1.38 1.43 1.43 1.43 1.40 1.37 1.38
0.29 0.27 0.18 0.23 0.23 0.20 0.16 0.15 0.12 0.13 0.14 0.14 0.16 0.21 0.26 0.26 0.31 0.33 0.34 0.33 0.29 0.26 0.26 0.26 0.23 0.27 0.36 0.41 0.40 0.42 0.44 0.45 0.43 0.43 0.43 0.46 0.48 0.53 0.51 0.51 0.56 0.61 0.63 0.67 0.72 0.79 0.88 0.94 1.01 1.06 1.10 1.11 1.14 1.19 1.24 1.26 1.25 1.26 1.32 1.33 1.31 1.27 1.28 1.27 1.30 1.34 1.36 1.40 1.40 1.40 1.38 1.38 1.39 1.38 1.41 1.41 1.41 1.37 1.38 1.45 1.47 1.39 1.41 1.41 1.33 1.32
0.30 0.29 0.20 0.24 0.22 0.17 0.17 0.19 0.14 0.13 0.15 0.16 0.17 0.16 0.21 0.25 0.25 0.24 0.26 0.37 0.36 0.30 0.25 0.25 0.22 0.30 0.40 0.48 0.42 0.42 0.45 0.43 0.43 0.42 0.43 0.44 0.46 0.49 0.57 0.59 0.60 0.63 0.68 0.69 0.73 0.79 0.87 0.94 0.99 1.06 1.11 1.14 1.13 1.15 1.18 1.25 1.30 1.31 1.32 1.34 1.33 1.29 1.29 1.28 1.31 1.35 1.39 1.44 1.48 1.46 1.43 1.41 1.41 1.40 1.40 1.39 1.38 1.39 1.46 1.46 1.42 1.41 1.42 1.40 1.40 1.38
0.35 0.36 0.28 0.24 0.24 0.21 0.19 0.21 0.22 0.17 0.15 0.17 0.19 0.15 0.18 0.20 0.25 0.25 0.23 0.29 0.32 0.30 0.32 0.31 0.28 0.28 0.36 0.47 0.47 0.46 0.45 0.43 0.42 0.42 0.41 0.42 0.44 0.54 0.64 0.63 0.67 0.70 0.70 0.72 0.75 0.79 0.86 0.93 0.98 1.02 1.05 1.06 1.07 1.10 1.15 1.21 1.26 1.29 1.30 1.32 1.32 1.28 1.27 1.29 1.33 1.40 1.45 1.49 1.51 1.52 1.54 1.54 1.50 1.46 1.43 1.39 1.39 1.37 1.42 1.44 1.44 1.46 1.41 1.43 1.43 1.38
0.39 0.32 0.29 0.26 0.29 0.29 0.27 0.25 0.26 0.24 0.18 0.15 0.16 0.18 0.18 0.17 0.20 0.22 0.25 0.28 0.29 0.32 0.30 0.29 0.27 0.28 0.37 0.47 0.45 0.42 0.42 0.43 0.43 0.41 0.47 0.45 0.45 0.56 0.58 0.57 0.60 0.66 0.73 0.76 0.78 0.79 0.83 0.92 0.98 1.00 1.02 1.05 1.07 1.10 1.13 1.16 1.22 1.27 1.29 1.29 1.30 1.26 1.27 1.34 1.40 1.46 1.50 1.50 1.52 1.57 1.60 1.59 1.58 1.52 1.46 1.39 1.40 1.38 1.39 1.40 1.40 1.43 1.39 1.41 1.42 1.34
0.29 0.33 0.31 0.27 0.25 0.27 0.28 0.29 0.27 0.28 0.23 0.17 0.15 0.16 0.17 0.19 0.20 0.22 0.25 0.30 0.27 0.29 0.32 0.28 0.23 0.28 0.39 0.45 0.47 0.45 0.44 0.38 0.38 0.40 0.45 0.48 0.47 0.48 0.54 0.55 0.56 0.64 0.70 0.73 0.75 0.78 0.83 0.89 0.92 0.94 0.97 1.02 1.05 1.08 1.12 1.15 1.17 1.19 1.22 1.25 1.23 1.25 1.32 1.39 1.46 1.49 1.53 1.53 1.53 1.57 1.59 1.59 1.59 1.54 1.49 1.43 1.38 1.32 1.38 1.38 1.37 1.39 1.37 1.39 1.40 1.35
0.31 0.34 0.30 0.23 0.21 0.18 0.18 0.19 0.19 0.20 0.20 0.20 0.18 0.17 0.16 0.15 0.17 0.20 0.20 0.23 0.22 0.28 0.31 0.29 0.28 0.33 0.37 0.46 0.38 0.35 0.39 0.39 0.38 0.39 0.42 0.45 0.45 0.46 0.54 0.56 0.57 0.63 0.68 0.72 0.75 0.77 0.79 0.86 0.95 0.96 0.97 1.02 1.05 1.07 1.10 1.12 1.13 1.15 1.18 1.20 1.23 1.26 1.35 1.43 1.49 1.50 1.52 1.55 1.54 1.54 1.54 1.55 1.57 1.56 1.54 1.51 1.47 1.44 1.41 1.42 1.38 1.36 1.37 1.42 1.41 1.37
0.35 0.36 0.34 0.30 0.25 0.23 0.24 0.27 0.30 0.29 0.26 0.20 0.20 0.18 0.17 0.17 0.16 0.17 0.19 0.21 0.22 0.29 0.28 0.31 0.33 0.34 0.36 0.38 0.36 0.35 0.36 0.36 0.35 0.37 0.38 0.42 0.46 0.46 0.50 0.53 0.55 0.60 0.65 0.68 0.73 0.80 0.86 0.90 0.91 0.93 0.97 1.00 1.03 1.06 1.08 1.09 1.09 1.11 1.13 1.15 1.20 1.28 1.36 1.42 1.46 1.48 1.49 1.54 1.55 1.55 1.54 1.55 1.55 1.56 1.59 1.62 1.61 1.58 1.50 1.42 1.39 1.36 1.32 1.39 1.39 1.32
0.43 0.38 0.38 0.34 0.32 0.31 0.31 0.32 0.34 0.32 0.27 0.26 0.22 0.20 0.19 0.19 0.18 0.15 0.15 0.16 0.22 0.23 0.24 0.30 0.32 0.31 0.35 0.36 0.39 0.38 0.35 0.36 0.34 0.34 0.37 0.42 0.46 0.43 0.47 0.52 0.53 0.58 0.62 0.66 0.69 0.74 0.77 0.84 0.92 0.93 0.95 0.99 1.02 1.05 1.08 1.10 1.10 1.10 1.11 1.11 1.18 1.25 1.32 1.40 1.45 1.47 1.49 1.52 1.54 1.56 1.58 1.60 1.64 1.65 1.67 1.71 1.71 1.67 1.63 1.56 1.44 1.34 1.39 1.42 1.39 1.33
0.48 0.38 0.42 0.40 0.35 0.34 0.33 0.33 0.33 0.33 0.31 0.29 0.28 0.25 0.23 0.21 0.20 0.17 0.17 0.17 0.18 0.19 0.21 0.26 0.31 0.32 0.33 0.34 0.38 0.38 0.39 0.36 0.34 0.34 0.34 0.39 0.42 0.54 0.54 0.51 0.51 0.53 0.58 0.60 0.63 0.71 0.79 0.83 0.88 0.91 0.94 0.97 1.00 1.01 1.04 1.07 1.10 1.13 1.15 1.19 1.23 1.27 1.33 1.42 1.45 1.46 1.49 1.51 1.52 1.55 1.61 1.65 1.69 1.73 1.74 1.75 1.71 1.68 1.67 1.68 1.70 1.62 1.44 1.42 1.42 1.39
0.55 0.45 0.46 0.44 0.40 0.39 0.38 0.36 0.34 0.32 0.32 0.32 0.29 0.29 0.28 0.25 0.22 0.20 0.18 0.17 0.16 0.17 0.21 0.25 0.28 0.32 0.33 0.33 0.33 0.35 0.37 0.37 0.35 0.36 0.33 0.39 0.46 0.47 0.51 0.51 0.50 0.52 0.54 0.57 0.61 0.66 0.76 0.86 0.90 0.91 0.94 0.96 0.96 0.98 1.01 1.04 1.07 1.08 1.11 1.16 1.24 1.28 1.37 1.42 1.43 1.43 1.45 1.46 1.49 1.57 1.62 1.64 1.64 1.66 1.70 1.72 1.69 1.71 1.74 1.78 1.78 1.78 1.63 1.46 1.38 1.36
0.51 0.44 0.46 0.45 0.41 0.39 0.40 0.39 0.38 0.35 0.33 0.30 0.31 0.30 0.29 0.29 0.26 0.23 0.21 0.19 0.19 0.18 0.18 0.20 0.22 0.26 0.35 0.33 0.31 0.33 0.34 0.35 0.32 0.34 0.36 0.39 0.44 0.45 0.47 0.47 0.48 0.49 0.53 0.58 0.62 0.66 0.77 0.88 0.91 0.92 0.92 0.92 0.94 0.96 0.99 1.02 1.05 1.09 1.13 1.19 1.25 1.29 1.36 1.41 1.39 1.41 1.41 1.42 1.50 1.55 1.59 1.60 1.62 1.68 1.68 1.71 1.72 1.73 1.76 1.78 1.78 1.75 1.67 1.57 1.43 1.34
0.53 0.46 0.54 0.48 0.38 0.34 0.37 0.36 0.37 0.38 0.37 0.33 0.30 0.30 0.29 0.28 0.27 0.25 0.21 0.21 0.19 0.18 0.19 0.19 0.19 0.22 0.26 0.31 0.31 0.30 0.31 0.34 0.35 0.37 0.40 0.38 0.37 0.42 0.45 0.46 0.48 0.51 0.53 0.58 0.62 0.67 0.77 0.84 0.87 0.86 0.87 0.89 0.94 0.99 1.00 1.02 1.07 1.10 1.11 1.20 1.23 1.28 1.35 1.35 1.36 1.36 1.39 1.43 1.50 1.53 1.56 1.60 1.62 1.62 1.65 1.69 1.68 1.68 1.72 1.72 1.71 1.69 1.63 1.62 1.56 1.47
0.53 0.51 0.48 0.47 0.39 0.36 0.38 0.36 0.35 0.36 0.34 0.30 0.29 0.30 0.30 0.29 0.29 0.29 0.28 0.25 0.22 0.21 0.19 0.19 0.18 0.23 0.26 0.23 0.24 0.29 0.26 0.29 0.36 0.36 0.34 0.32 0.37 0.43 0.45 0.46 0.50 0.55 0.57 0.61 0.63 0.66 0.74 0.80 0.83 0.84 0.87 0.91 0.96 0.99 1.02 1.06 1.06 1.06 1.12 1.15 1.22 1.29 1.30 1.31 1.32 1.35 1.38 1.45 1.49 1.52 1.54 1.57 1.56 1.56 1.59 1.59 1.57 1.58 1.58 1.57 1.56 1.55 1.53 1.44 1.40 1.43
0.57 0.55 0.51 0.55 0.41 0.40 0.42 0.41 0.39 0.32 0.27 0.25 0.31 0.31 0.29 0.27 0.27 0.26 0.26 0.27 0.26 0.24 0.21 0.23 0.25 0.30 0.27 0.27 0.30 0.28 0.22 0.22 0.28 0.30 0.29 0.33 0.41 0.47 0.46 0.50 0.56 0.62 0.66 0.69 0.70 0.71 0.80 0.88 0.91 0.93 0.93 0.94 0.99 1.03 1.08 1.10 1.08 1.11 1.16 1.20 1.24 1.23 1.25 1.27 1.32 1.35 1.38 1.42 1.44 1.44 1.42 1.39 1.35 1.34 1.36 1.38 1.39 1.41 1.41 1.43 1.44 1.48 1.50 1.50 1.49 1.40
0.55 0.53 0.48 0.53 0.44 0.40 0.44 0.43 0.39 0.31 0.29 0.37 0.40 0.37 0.35 0.32 0.31 0.29 0.29 0.29 0.29 0.28 0.27 0.27 0.29 0.31 0.34 0.35 0.32 0.33 0.35 0.36 0.37 0.35 0.33 0.36 0.40 0.44 0.48 0.53 0.58 0.63 0.68 0.72 0.73 0.75 0.82 0.88 0.91 0.94 0.95 0.97 1.04 1.10 1.11 1.10 1.11 1.15 1.17 1.19 1.19 1.23 1.24 1.27 1.30 1.31 1.32 1.29 1.28 1.27 1.26 1.28 1.29 1.33 1.37 1.37 1.38 1.39 1.41 1.43 1.45 1.47 1.49 1.50 1.49 1.43
0.53 0.53 0.51 0.46 0.47 0.49 0.46 0.45 0.32 0.29 0.40 0.44 0.47 0.49 0.49 0.43 0.36 0.32 0.29 0.30 0.31 0.30 0.29 0.28 0.27 0.27 0.30 0.35 0.34 0.36 0.39 0.36 0.45 0.45 0.42 0.43 0.43 0.43 0.46 0.53 0.59 0.63 0.65 0.72 0.78 0.81 0.84 0.87 0.92 0.93 0.96 1.07 1.09 1.10 1.09 1.05 1.09 1.11 1.13 1.19 1.19 1.22 1.23 1.25 1.24 1.22 1.22 1.20 1.23 1.24 1.27 1.29 1.31 1.36 1.39 1.38 1.38 1.38 1.39 1.43 1.43 1.43 1.48 1.49 1.48 1.48
0.56 0.58 0.54 0.45 0.52 0.43 0.46 0.45 0.41 0.46 0.44 0.45 0.46 0.52 0.51 0.41 0.38 0.34 0.28 0.28 0.30 0.31 0.30 0.28 0.28 0.27 0.29 0.32 0.33 0.35 0.46 0.44 0.35 0.35 0.39 0.39 0.42 0.44 0.46 0.51 0.59 0.64 0.66 0.71 0.75 0.82 0.91 0.97 1.01 1.05 1.08 1.08 1.06 1.04 1.03 1.10 1.11 1.12 1.16 1.16 1.18 1.20 1.19 1.20 1.16 1.16 1.19 1.20 1.24 1.27 1.30 1.33 1.34 1.36 1.38 1.38 1.37 1.36 1.39 1.40 1.42 1.44 1.50 1.45 1.42 1.41
0.56 0.49 0.54 0.46 0.46 0.48 0.47 0.46 0.43 0.43 0.37 0.45 0.67 0.69 0.69 0.62 0.55 0.53 0.39 0.32 0.36 0.33 0.32 0.30 0.30 0.32 0.30 0.32 0.34 0.43 0.45 0.33 0.27 0.26 0.33 0.39 0.42 0.43 0.48 0.55 0.61 0.65 0.67 0.71 0.78 0.89 0.92 0.95 0.98 1.08 1.06 1.06 1.05 1.07 1.08 1.11 1.12 1.14 1.11 1.11 1.16 1.16 1.15 1.14 1.12 1.18 1.21 1.21 1.26 1.28 1.32 1.34 1.36 1.36 1.39 1.40 1.38 1.38 1.42 1.44 1.44 1.42 1.47 1.42 1.40 1.39
0.53 0.51 0.53 0.43 0.40 0.45 0.43 0.43 0.41 0.37 0.43 0.60 0.67 0.71 0.71 0.68 0.62 0.59 0.42 0.31 0.36 0.37 0.36 0.32 0.30 0.31 0.31 0.31 0.35 0.45 0.36 0.27 0.25 0.27 0.33 0.43 0.43 0.45 0.49 0.57 0.63 0.67 0.72 0.75 0.79 0.81 0.87 0.92 1.00 1.04 1.08 1.11 1.09 1.09 1.12 1.12 1.11 1.09 1.07 1.11 1.16 1.17 1.13 1.10 1.14 1.20 1.21 1.23 1.29 1.32 1.34 1.34 1.35 1.37 1.39 1.40 1.42 1.43 1.41 1.42 1.41 1.42 1.43 1.42 1.41 1.41
0.47 0.45 0.46 0.41 0.40 0.43 0.44 0.41 0.41 0.47 0.47 0.69 0.70 0.70 0.72 0.72 0.64 0.53 0.33 0.28 0.37 0.40 0.41 0.39 0.34 0.32 0.31 0.32 0.43 0.40 0.33 0.26 0.25 0.29 0.53 0.52 0.52 0.55 0.57 0.59 0.65 0.70 0.74 0.79 0.82 0.92 1.00 1.01 1.01 1.04 1.08 1.09 1.10 1.13 1.10 1.10 1.09 1.09 1.11 1.15 1.19 1.14 1.10 1.12 1.19 1.26 1.28 1.30 1.32 1.35 1.35 1.33 1.34 1.38 1.41 1.43 1.45 1.45 1.44 1.43 1.42 1.39 1.38 1.38 1.37 1.38
0.44 0.44 0.44 0.37 0.38 0.40 0.39 0.39 0.44 0.50 0.71 0.71 0.72 0.73 0.71 0.73 0.65 0.43 0.30 0.34 0.61 0.60 0.60 0.61 0.49 0.39 0.38 0.38 0.43 0.35 0.37 0.46 0.63 0.63 0.61 0.65 0.64 0.66 0.71 0.76 0.81 0.84 0.81 0.85 0.92 0.99 0.98 0.98 1.00 1.02 1.06 1.08 1.09 1.11 1.12 1.12 1.11 1.12 1.15 1.17 1.15 1.11 1.14 1.21 1.26 1.27 1.31 1.33 1.32 1.33 1.33 1.33 1.35 1.38 1.42 1.47 1.47 1.46 1.43 1.41 1.39 1.38 1.37 1.35 1.35 1.37
0.41 0.40 0.43 0.41 0.39 0.39 0.42 0.39 0.42 0.49 0.74 0.77 0.78 0.76 0.80 0.62 0.42 0.37 0.65 0.76 0.74 0.65 0.65 0.62 0.55 0.55 0.53 0.51 0.47 0.40 0.57 0.60 0.64 0.69 0.69 0.72 0.73 0.71 0.76 0.81 0.87 0.92 0.98 0.99 1.00 1.02 1.02 1.05 1.07 1.06 1.05 1.07 1.09 1.11 1.14 1.15 1.12 1.13 1.15 1.16 1.12 1.17 1.25 1.27 1.28 1.29 1.30 1.31 1.31 1.32 1.32 1.33 1.39 1.42 1.43 1.47 1.49 1.42 1.38 1.40 1.41 1.41 1.40 1.38 1.36 1.36
0.45 0.37 0.34 0.33 0.37 0.41 0.43 0.41 0.40 0.36 0.69 0.77 0.72 0.73 0.80 0.56 0.60 0.80 0.81 0.82 0.80 0.76 0.69 0.68 0.61 0.61 0.61 0.57 0.58 0.61 0.56 0.64 0.64 0.69 0.74 0.76 0.78 0.80 0.84 0.89 0.89 0.88 0.90 0.94 1.02 1.10 1.08 1.01 0.99 0.99 1.02 1.09 1.13 1.16 1.17 1.16 1.10 1.12 1.17 1.15 1.18 1.26 1.28 1.28 1.29 1.28 1.28 1.29 1.31 1.30 1.32 1.36 1.39 1.40 1.43 1.44 1.45 1.41 1.34 1.37 1.38 1.40 1.42 1.39 1.37 1.36
0.58 0.40 0.35 0.36 0.41 0.32 0.31 0.30 0.32 0.44 0.66 0.72 0.66 0.63 0.78 0.82 0.87 0.89 0.85 0.82 0.84 0.87 0.84 0.76 0.78 0.72 0.74 0.75 0.67 0.67 0.69 0.68 0.75 0.77 0.82 0.85 0.90 0.96 0.97 0.99 1.00 1.00 1.00 1.03 1.04 1.04 1.02 0.99 1.01 1.02 1.07 1.11 1.16 1.20 1.23 1.21 1.15 1.16 1.16 1.14 1.26 1.28 1.28 1.28 1.28 1.28 1.28 1.29 1.29 1.31 1.34 1.37 1.40 1.43 1.46 1.44 1.42 1.38 1.34 1.34 1.38 1.40 1.40 1.39 1.37 1.35
0.67 0.56 0.59 0.43 0.54 0.40 0.36 0.40 0.64 0.65 0.68 0.71 0.73 0.80 0.84 0.89 0.90 0.91 0.92 0.88 0.91 0.89 0.96 0.87 0.84 0.91 0.91 0.84 0.77 0.74 0.72 0.76 0.80 0.86 0.84 0.89 0.92 0.95 0.95 0.95 0.96 0.95 0.97 0.97 1.00 1.04 1.03 1.02 1.02 1.06 1.08 1.14 1.18 1.23 1.25 1.26 1.19 1.15 1.12 1.21 1.29 1.27 1.26 1.28 1.29 1.28 1.27 1.29 1.30 1.33 1.36 1.38 1.40 1.43 1.45 1.44 1.40 1.35 1.34 1.34 1.36 1.34 1.38 1.38 1.36 1.34
0.76 0.70 0.69 0.57 0.60 0.63 0.63 0.64 0.70 0.73 0.73 0.76 0.77 0.84 0.86 0.91 0.94 0.96 0.95 0.92 0.92 0.97 0.99 0.94 0.95 0.97 0.96 0.93 0.84 0.81 0.80 0.84 0.85 0.88 0.91 0.96 0.98 1.02 1.03 1.02 1.02 1.04 1.03 1.04 1.04 1.04 1.03 1.06 1.07 1.08 1.10 1.18 1.24 1.24 1.29 1.31 1.31 1.15 1.15 1.24 1.26 1.29 1.31 1.30 1.30 1.29 1.30 1.31 1.34 1.35 1.38 1.36 1.38 1.41 1.43 1.42 1.40 1.38 1.37 1.35 1.35 1.34 1.37 1.37 1.34 1.33
0.74 0.70 0.64 0.54 0.63 0.46 0.43 0.60 0.60 0.63 0.70 0.69 0.73 0.87 0.96 1.01 0.98 1.00 1.00 0.99 0.97 0.98 0.96 0.95 0.99 1.02 1.05 1.03 0.97 0.88 0.87 0.94 0.95 0.98 1.00 1.01 1.01 1.00 1.00 1.01 1.04 1.07 1.07 1.07 1.12 1.14 1.14 1.12 1.08 1.10 1.11 1.12 1.22 1.26 1.28 1.28 1.27 1.24 1.25 1.26 1.31 1.34 1.35 1.33 1.31 1.30 1.30 1.32 1.34 1.35 1.35 1.34 1.34 1.37 1.40 1.40 1.39 1.39 1.39 1.39 1.38 1.38 1.39 1.38 1.34 1.33
0.65 0.73 0.64 0.64 0.58 0.49 0.58 0.62 0.63 0.68 0.70 0.72 0.74 0.88 0.95 1.01 1.01 1.01 1.00 1.01 1.01 0.99 0.95 0.97 0.97 0.95 0.99 1.00 0.99 0.88 0.86 0.90 0.90 0.91 0.92 0.94 0.96 0.99 1.00 1.01 1.00 1.01 1.05 1.10 1.15 1.16 1.13 1.13 1.12 1.11 1.10 1.10 1.16 1.25 1.26 1.26 1.25 1.26 1.28 1.31 1.34 1.35 1.34 1.30 1.29 1.27 1.28 1.29 1.31 1.32 1.34 1.34 1.35 1.35 1.35 1.36 1.38 1.35 1.36 1.39 1.41 1.41 1.40 1.38 1.37 1.38
0.75 0.75 0.60 0.62 0.58 0.63 0.69 0.71 0.73 0.73 0.72 0.71 0.80 0.99 1.08 1.05 1.00 0.99 0.98 0.95 0.93 0.89 0.86 0.87 0.93 0.91 0.90 0.84 0.86 0.89 0.89 0.90 0.88 0.87 0.87 0.90 0.91 0.93 0.96 0.97 0.98 0.98 1.00 1.00 1.04 1.05 1.03 1.04 1.05 1.05 1.06 1.08 1.15 1.20 1.22 1.22 1.25 1.28 1.29 1.31 1.33 1.35 1.30 1.27 1.26 1.27 1.27 1.29 1.29 1.29 1.32 1.33 1.33 1.32 1.32 1.33 1.32 1.34 1.36 1.37 1.43 1.46 1.46 1.55 1.58 1.56
0.74 0.66 0.71 0.65 0.57 0.56 0.58 0.66 0.75 0.58 0.57 0.71 0.85 0.98 1.07 1.07 1.02 0.95 0.93 0.93 0.94 0.91 0.87 0.87 0.91 0.95 0.96 0.94 0.90 0.87 0.84 0.88 0.92 0.92 0.89 0.95 1.00 1.01 0.99 0.98 1.01 1.02 1.03 1.08 1.10 1.08 1.06 1.09 1.09 1.07 1.06 1.11 1.16 1.19 1.20 1.22 1.24 1.29 1.30 1.34 1.36 1.37 1.31 1.28 1.26 1.25 1.24 1.27 1.27 1.28 1.27 1.29 1.29 1.29 1.30 1.31 1.28 1.29 1.35 1.43 1.47 1.50 1.50 1.52 1.56 1.54
0.67 0.71 0.70 0.64 0.63 0.61 0.72 0.83 0.84 0.81 0.81 0.87 0.96 1.02 1.06 1.07 1.01 0.93 0.90 0.92 0.97 1.00 0.98 0.93 0.96 0.97 0.98 0.99 0.98 0.93 0.91 0.90 0.93 0.95 0.96 0.96 1.00 1.04 1.06 1.05 1.03 1.04 1.06 1.08 1.05 1.04 1.03 1.05 1.08 1.08 1.10 1.13 1.18 1.19 1.21 1.23 1.27 1.30 1.35 1.38 1.41 1.40 1.35 1.29 1.25 1.24 1.23 1.21 1.21 1.23 1.23 1.23 1.23 1.25 1.30 1.32 1.32 1.34 1.33 1.37 1.47 1.51 1.51 1.50 1.47 1.46
Wind_Speed
24 22 23 23 23 24 25 24 23 20 16 16 16 16 16 15 14 15 15 15 17 16 15 16 15 15 14 12 11 12 12 12 11 11 11 11 11 12 14 15 15 15 15 15 16 17 17 17 16 16 16 16 16 15 15 16 15 15 15 15 14 14 14 13 12 12 11 11 10 10 9 9 8 8 8 8 8 7 7 8 7 8 8 8 9 9
24 24 24 25 24 24 25 25 24 22 18 17 17 16 16 16 14 14 15 15 17 16 15 16 16 15 15 13 12 13 13 13 13 12 12 12 11 11 13 14 15 15 14 15 16 17 17 17 17 17 16 16 16 16 16 16 16 15 15 15 14 14 14 14 13 12 12 11 11 10 10 9 9 9 8 8 8 8 8 8 8 8 8 9 9 9
25 25 25 25 25 25 25 25 25 24 21 18 17 16 16 16 14 14 16 16 16 15 14 15 16 16 16 15 14 14 14 14 14 14 13 13 12 12 12 13 14 15 14 15 15 16 17 18 18 17 17 17 17 17 17 17 16 16 15 15 15 14 14 14 13 13 12 12 11 11 10 9 9 9 8 8 8 8 9 9 9 9 9 9 9 9
25 25 25 25 26 26 26 26 26 24 22 20 18 17 16 17 15 15 17 17 17 16 15 15 16 15 16 16 16 16 16 15 15 15 15 14 14 13 13 13 14 15 15 15 16 16 17 18 18 18 17 17 17 17 17 17 17 16 15 15 15 15 14 14 14 13 13 12 12 11 11 10 10 9 9 9 9 9 9 9 9 9 9 9 9 8
25 24 25 27 26 27 26 26 26 24 22 22 21 20 17 17 18 17 17 17 17 17 16 15 15 16 17 17 18 17 17 17 16 16 16 16 16 14 14 14 14 15 15 16 16 17 17 18 18 18 18 18 17 17 17 17 17 16 16 16 15 15 14 14 14 13 13 13 12 11 11 10 10 9 9 9 9 9 9 9 9 9 9 8 8 8
27 24 24 27 27 28 27 26 27 25 22 22 23 23 20 18 18 18 18 18 17 17 17 17 16 16 17 18 18 17 16 17 16 16 17 17 16 16 16 15 15 15 15 16 17 17 17 18 19 19 19 18 18 18 17 17 17 17 16 16 16 15 14 14 14 14 13 13 12 12 11 11 10 10 10 10 10 9 9 9 8 7 7 8 8 8
28 26 25 27 28 29 29 27 28 27 23 22 22 24 22 19 18 18 19 19 18 17 17 18 17 15 15 17 18 18 17 17 16 16 17 17 17 17 17 16 16 16 16 16 17 17 18 18 19 19 19 19 19 18 18 18 18 18 17 17 17 16 15 15 15 15 14 13 13 12 12 11 11 10 10 10 10 9 8 8 7 7 7 7 8 8
29 29 26 28 28 29 30 28 28 28 26 22 21 23 24 22 20 19 20 20 19 17 16 18 19 17 16 15 16 17 18 17 16 16 17 16 17 18 17 17 17 17 16 16 16 17 18 18 19 19 19 20 20 19 19 19 19 19 18 18 17 17 16 16 16 15 15 14 13 13 13 12 12 11 11 10 10 9 9 8 8 8 7 7 7 8
30 31 29 29 29 29 29 28 27 28 28 23 20 21 24 24 22 20 20 20 20 19 18 19 20 18 17 16 15 17 18 18 17 17 17 17 18 18 18 18 18 18 17 17 17 17 18 18 19 19 20 20 20 20 19 20 19 19 19 19 18 18 17 17 17 16 16 15 14 14 13 13 12 12 11 11 10 9 9 9 8 8 8 8 8 8
27 32 32 31 31 30 29 29 29 29 29 25 20 20 22 23 22 21 21 20 21 21 20 20 20 18 17 17 16 17 17 17 17 17 17 17 18 18 18 18 19 19 18 18 18 17 18 18 19 19 20 21 21 20 20 21 20 20 20 19 19 19 18 18 17 17 17 16 15 14 14 14 13 13 12 11 11 10 10 9 9 9 9 8 8 8
26 28 31 31 32 31 29 29 29 29 29 26 22 22 22 22 22 21 21 21 21 22 22 22 21 19 18 17 16 17 17 16 15 15 16 17 18 18 19 18 18 18 18 18 18 18 18 19 19 20 19 20 20 21 21 22 21 21 20 20 20 19 18 18 18 18 17 16 16 15 15 15 14 13 12 12 12 11 10 10 10 10 10 9 9 9
28 27 29 31 32 32 31 30 29 29 30 28 25 24 23 21 21 21 21 22 22 21 22 24 23 21 20 18 16 16 18 17 15 15 15 16 18 18 19 18 18 18 18 19 19 18 18 18 19 20 19 20 20 21 22 22 22 21 20 20 20 19 19 18 18 18 17 17 16 15 15 15 15 14 13 13 13 12 11 11 10 10 10 10 10 10
30 29 29 30 32 34 32 31 30 30 31 30 27 27 26 22 22 22 22 22 22 22 22 23 24 23 21 20 19 17 17 17 15 15 15 16 17 17 18 18 18 18 18 19 19 19 18 18 19 20 20 20 20 21 22 22 22 21 21 20 20 20 19 18 18 18 18 17 16 16 16 15 15 14 14 14 13 13 12 12 12 11 11 11 11 11
28 30 32 32 31 34 35 32 31 31 32 32 30 29 28 24 23 23 23 22 22 23 23 22 22 22 20 20 22 21 20 19 17 17 16 15 16 16 18 18 18 18 19 19 19 19 19 19 19 19 20 20 20 21 21 22 22 21 21 21 20 20 20 19 18 18 18 17 17 17 16 16 15 15 15 14 14 13 13 12 13 12 12 12 12 12
27 27 32 34 31 33 36 35 33 31 32 34 32 30 30 28 25 23 22 22 22 22 23 23 23 22 20 18 19 20 20 20 18 17 16 15 16 16 17 18 18 18 18 18 19 20 21 21 21 20 20 20 20 21 21 21 21 21 21 21 21 20 20 20 19 19 18 18 18 18 17 16 16 15 15 15 14 14 13 13 13 13 13 13 13 13
28 27 29 33 33 33 35 36 34 31 31 33 33 32 32 31 28 24 24 25 24 22 23 23 23 23 21 18 19 19 18 19 18 17 16 16 16 17 17 18 19 18 18 18 18 19 21 21 22 22 21 20 20 20 21 21 21 21 20 20 21 21 20 20 20 19 19 18 18 18 18 17 17 16 16 15 15 15 14 14 13 13 13 13 14 14
25 25 25 30 33 35 35 35 36 34 30 30 34 36 32 30 30 28 26 25 24 23 23 22 22 22 22 22 23 23 21 20 19 17 17 16 16 17 18 18 19 19 19 19 18 19 20 21 21 22 22 21 20 20 21 21 21 21 20 20 21 21 21 21 21 20 20 19 19 19 19 18 18 17 17 16 16 16 15 15 15 15 15 15 15 15
22 23 24 28 31 34 34 34 37 38 34 30 32 35 32 29 30 30 27 24 25 25 24 24 23 22 22 22 22 24 24 22 21 19 18 16 16 17 19 19 19 19 19 20 19 19 19 20 21 22 22 22 21 21 21 20 20 20 20 20 20 21 21 21 21 21 20 20 19 19 19 19 19 18 18 18 17 17 17 17 16 16 16 16 16 16
21 22 24 28 30 31 32 33 34 38 40 35 31 32 32 31 30 30 28 26 26 25 24 26 26 23 23 22 19 20 21 20 19 18 17 15 15 17 18 19 19 19 19 19 19 19 18 19 21 22 23 22 22 21 21 20 20 20 20 20 20 21 21 21 21 20 20 20 19 19 19 20 19 19 19 19 18 18 18 18 18 18 18 17 17 16
20 21 21 24 28 29 30 33 34 35 39 39 34 32 34 34 32 32 31 29 27 25 24 26 27 24 24 24 22 20 19 17 16 16 16 15 15 16 17 17 18 18 19 19 19 19 20 20 21 22 23 23 22 21 21 21 21 21 20 20 20 20 21 21 21 20 20 20 19 19 19 20 20 20 20 20 19 20 20 19 19 19 18 18 18 18
21 21 21 21 25 28 29 33 36 35 35 37 37 35 34 33 32 32 32 32 31 28 25 24 25 24 22 23 26 25 22 20 18 17 17 16 16 16 16 17 17 18 19 19 20 20 20 21 21 22 22 22 22 22 21 21 21 21 21 20 20 20 20 21 21 20 20 20 20 20 20 20 20 21 21 21 21 21 21 20 20 20 19 19 19 19
22 22 22 21 23 27 29 31 34 37 36 35 37 37 36 33 32 32 32 32 33 32 29 26 25 24 21 20 24 27 25 24 21 20 19 19 19 16 15 16 17 17 18 19 20 20 21 21 21 21 21 22 22 22 22 21 21 21 21 21 20 20 20 20 20 20 20 20 20 20 20 20 20 21 21 22 22 22 22 22 21 21 21 20 20 20
23 21 23 23 23 25 28 29 32 35 37 36 36 37 38 36 35 34 32 31 32 33 33 30 28 26 22 20 21 23 25 25 24 21 20 20 20 17 15 15 16 17 18 18 19 20 21 21 22 21 21 22 22 21 22 21 21 21 21 20 20 20 20 20 20 20 20 20 20 20 20 20 20 21 22 22 23 23 23 23 23 23 23 22 22 21
24 22 23 24 23 23 26 28 29 32 35 36 36 36 38 38 38 37 34 33 33 33 33 32 30 27 24 22 20 20 23 25 25 23 20 19 18 17 16 16 16 16 17 18 19 20 20 21 22 21 21 21 21 21 21 21 21 21 21 21 21 21 21 20 20 20 20 20 20 20 20 21 21 21 22 23 23 23 24 24 24 24 24 24 23 23
24 24 23 23 22 23 25 26 28 30 33 34 35 37 38 40 40 39 36 35 36 36 35 33 32 29 26 24 23 22 22 23 23 23 21 19 18 17 16 15 16 16 17 18 19 20 20 21 22 22 21 21 21 21 20 21 21 21 21 22 21 21 21 20 20 20 20 20 20 20 21 21 21 22 22 23 23 24 25 25 25 25 25 25 24 24
23 24 25 25 24 23 25 26 28 29 31 32 35 37 39 41 41 39 36 37 37 37 37 36 33 30 28 27 26 25 24 22 22 22 21 20 19 18 16 16 16 16 16 18 19 20 19 20 22 22 21 21 21 21 20 21 21 21 21 22 21 21 21 21 20 20 20 20 20 21 21 21 22 22 23 23 23 24 25 25 26 26 26 25 25 25
23 24 26 28 28 26 25 25 27 28 30 32 35 38 38 39 41 40 38 38 38 36 37 39 35 33 31 29 27 27 27 25 23 23 23 21 21 20 19 18 17 17 17 18 19 20 20 20 22 23 22 21 21 21 21 20 20 20 20 21 21 21 20 20 20 20 20 20 20 21 21 21 22 22 23 23 24 24 25 26 27 26 26 25 26 26
23 25 27 30 31 30 27 26 27 28 30 32 34 37 38 37 39 41 41 40 38 36 37 37 37 37 36 32 28 26 26 26 24 24 24 23 22 20 19 18 18 19 20 20 20 20 21 22 23 23 22 21 21 21 21 20 20 20 20 20 20 20 20 19 19 19 20 20 20 21 21 22 22 22 23 23 24 24 25 26 27 27 26 27 28 28
24 25 27 29 31 32 31 30 29 29 30 31 33 35 37 38 39 40 41 42 40 39 37 35 36 39 39 37 34 29 25 25 25 25 26 25 24 22 20 19 19 20 21 22 22 22 22 23 24 23 22 22 22 22 21 20 20 19 19 19 19 19 19 19 19 20 20 21 21 22 22 22 22 23 23 23 24 25 25 25 26 26 27 29 30 29
24 25 26 27 29 31 32 32 32 32 32 33 35 36 36 39 40 41 41 42 43 43 41 38 38 39 38 39 39 36 32 28 27 27 28 28 26 24 22 22 21 21 22 23 23 23 23 24 24 24 23 22 22 22 21 21 20 19 19 19 19 19 19 19 19 20 20 21 21 22 22 23 23 23 23 23 24 25 25 25 26 26 27 30 30 29
25 24 24 25 26 28 30 31 31 33 33 34 36 36 37 37 39 40 41 41 41 42 43 42 42 40 37 37 38 38 37 35 32 30 30 30 28 25 23 23 22 22 23 24 24 23 23 24 24 24 23 23 23 22 22 21 20 20 20 20 20 20 20 20 19 19 20 20 20 21 21 22 22 23 24 24 25 26 27 27 27 27 28 29 29 29
25 24 22 22 24 25 26 28 30 31 32 34 35 36 37 37 37 37 38 40 40 41 41 42 42 40 38 37 37 37 38 37 35 33 32 31 30 27 24 24 23 23 23 24 24 23 24 25 25 25 24 24 23 23 21 20 20 20 20 20 19 19 19 19 19 19 19 19 20 20 21 22 22 23 24 25 26 27 28 28 28 29 29 29 29 29
24 23 21 22 23 23 23 25 27 28 29 31 33 34 36 36 37 37 37 39 40 40 39 39 39 37 36 36 36 37 38 38 36 35 33 31 29 27 26 25 23 22 23 23 24 24 25 26 26 25 25 24 24 23 21 20 20 20 20 19 19 19 19 18 19 19 19 19 20 20 21 22 23 23 24 25 26 27 28 28 29 29 29 28 29 29
24 22 21 21 21 21 21 21 22 24 26 26 27 31 35 36 37 38 38 38 38 38 38 37 36 34 34 35 35 36 37 37 36 35 34 32 29 27 26 25 23 22 21 22 23 24 25 25 25 25 25 24 24 23 22 21 20 20 19 19 19 19 19 18 18 18 19 19 19 20 20 21 23 23 23 24 25 26 27 28 28 29 29 28 28 28
25 23 21 20 20 20 20 19 20 23 24 22 21 25 30 33 35 37 37 38 38 38 38 38 37 34 33 34 34 33 33 34 33 32 33 32 30 28 26 24 23 22 21 22 22 23 24 26 26 26 26 25 25 23 22 21 21 20 20 19 19 19 18 18 18 18 18 19 19 19 20 20 22 22 22 23 25 26 27 28 28 28 28 27 28 27
27 25 23 20 20 20 20 21 22 21 20 21 21 21 23 28 31 34 35 37 38 37 37 38 38 37 35 33 33 33 31 30 29 29 31 31 31 30 27 26 25 24 22 22 23 24 25 26 27 27 26 26 25 24 23 22 22 21 20 20 19 18 18 18 18 18 18 19 19 19 19 20 21 21 22 23 25 25 27 28 27 26 26 26 27 26
28 26 25 23 21 20 20 21 22 21 20 20 19 18 19 22 26 28 31 33 35 36 36 36 37 37 36 35 34 32 30 28 28 29 31 31 31 31 30 28 28 26 25 24 24 25 25 26 27 27 26 25 25 24 23 23 22 22 21 20 19 18 18 18 18 18 19 19 19 19 19 20 21 22 23 23 24 25 27 27 26 26 25 25 25 25
30 27 26 25 22 20 20 20 21 21 20 17 15 15 17 19 22 24 27 29 31 32 34 35 36 36 36 35 34 30 28 29 29 29 31 31 31 31 30 29 28 27 26 25 25 25 26 26 26 27 27 25 25 24 23 23 22 21 20 20 19 19 19 18 18 18 19 19 19 19 20 21 22 22 23 23 24 25 26 26 25 25 25 24 24 24
32 29 26 26 25 24 23 21 20 20 18 15 14 14 15 17 19 21 24 27 28 30 32 34 35 35 35 35 32 29 28 31 30 28 29 29 29 29 29 28 27 27 26 25 25 25 26 26 26 26 26 25 24 23 23 22 21 21 21 21 20 20 19 19 19 19 19 19 20 20 21 22 23 23 23 23 24 24 25 25 24 24 24 23 23 23
31 29 28 28 28 27 25 24 22 20 17 14 14 15 16 17 17 19 23 24 23 24 28 31 33 34 34 34 32 29 30 31 28 26 25 26 26 26 27 27 27 27 26 25 25 25 25 25 25 26 27 25 24 23 23 22 21 22 22 21 21 21 20 19 20 20 20 20 20 21 22 23 24 24 24 23 24 24 24 23 23 22 23 23 22 22
31 30 28 28 28 27 27 26 25 23 19 16 15 16 16 17 18 20 22 20 19 21 23 26 29 31 32 32 31 30 30 28 25 23 23 23 24 25 25 26 26 26 25 24 24 24 24 24 25 26 26 25 24 23 23 23 22 22 22 22 21 21 20 20 21 21 22 22 22 23 24 24 24 24 23 23 23 24 24 23 22 21 21 21 21 21
30 30 29 28 28 27 27 27 26 24 21 18 16 16 16 18 19 19 20 20 21 21 21 22 26 27 28 30 30 29 29 26 24 23 23 23 23 24 25 25 25 25 24 24 23 24 24 24 24 25 24 24 24 23 23 23 23 22 21 21 21 20 21 21 22 22 23 23 23 24 25 25 24 24 24 23 23 23 23 23 22 21 20 20 20 20
28 28 29 29 27 26 27 27 26 24 21 18 17 16 16 18 19 19 19 21 21 20 20 21 23 24 27 28 28 27 27 27 25 24 23 22 23 23 23 24 23 23 23 23 23 23 23 24 23 23 23 23 23 23 23 23 22 21 21 21 21 21 22 22 22 23 23 24 25 25 25 25 25 25 24 24 23 23 22 22 21 20 20 20 20 20
25 26 27 27 27 27 28 27 25 23 20 17 17 16 17 19 20 20 20 20 19 19 19 19 20 22 25 25 25 25 26 26 25 24 23 23 22 21 21 21 21 21 21 21 22 23 23 22 22 22 22 22 23 23 23 22 21 21 20 21 21 22 22 22 23 23 24 25 25 26 26 25 25 25 24 23 22 22 22 21 20 19 19 20 21 21
22 23 23 24 24 25 25 23 21 20 20 18 17 16 17 19 20 20 19 18 17 16 17 17 17 20 22 22 22 23 24 24 23 22 22 21 21 20 20 20 20 20 20 21 21 22 21 21 21 21 21 21 22 22 22 22 22 21 21 22 23 23 22 22 23 23 24 25 25 25 25 25 25 24 23 22 22 22 21 20 19 19 19 20 21 21
19 20 21 21 22 22 22 21 20 20 20 18 16 15 17 18 18 18 17 16 14 13 13 14 15 17 19 20 21 22 22 21 20 20 20 20 19 20 20 20 20 20 20 20 20 20 20 20 21 21 21 21 22 22 22 22 22 21 22 22 23 22 22 22 23 24 24 24 24 24 24 24 23 23 22 22 22 21 21 20 20 19 20 20 21 21
16 17 18 18 19 20 20 19 19 20 20 19 16 14 15 16 15 15 14 14 13 12 11 11 13 16 18 19 20 21 21 20 19 19 19 19 19 20 20 20 19 19 19 18 18 18 19 20 21 21 22 22 22 22 22 22 22 22 22 22 22 21 22 23 24 24 24 23 23 23 23 23 22 22 22 22 22 21 21 20 20 20 20 20 21 21
16 17 17 16 17 18 17 16 17 17 17 16 15 13 12 13 13 12 12 12 11 10 9 10 12 15 16 17 18 19 19 19 19 18 18 19 19 19 19 19 18 18 18 17 17 17 18 19 20 21 21 22 23 23 22 22 22 22 22 21 22 22 23 23 23 23 22 21 21 22 22 22 21 22 22 22 21 21 21 21 21 21 21 21 21 22
16 17 16 16 17 17 16 16 16 15 15 15 14 13 12 12 12 12 12 12 11 11 11 12 13 14 15 15 16 17 17 18 18 18 17 17 17 18 18 18 18 17 17 17 17 17 17 19 19 20 21 21 22 22 22 22 21 21 22 22 22 22 22 22 22 22 21 21 22 22 22 21 21 22 22 21 21 21 20 20 21 21 21 21 22 22
16 16 15 16 17 16 15 16 16 15 15 15 16 15 14 12 12 12 12 11 11 12 14 16 16 15 15 15 15 16 16 16 16 16 17 16 16 16 17 17 18 17 17 17 17 17 17 18 19 19 19 20 21 21 21 21 21 22 22 22 22 22 22 21 21 22 21 22 22 21 21 22 22 22 22 21 21 21 21 21 21 20 21 22 22 22
16 16 16 17 16 15 14 15 16 15 15 15 16 17 15 13 12 12 12 12 11 11 14 16 16 15 14 14 14 15 15 15 15 15 16 16 16 16 17 17 18 18 18 18 18 17 17 18 18 18 18 19 20 21 21 21 22 22 22 22 22 22 22 22 22 22 22 22 22 21 21 21 21 21 21 21 21 21 21 21 21 21 21 21 22 23
Wind_Direction
209 211 212 212 212 209 210 212 214 217 217 216 215 216 219 220 217 211 206 201 201 206 210 210 212 215 215 210 207 207 202 203 204 202 206 205 204 205 205 206 206 206 207 206 206 208 208 210 211 212 213 213 214 215 216 218 218 218 218 218 219 219 219 221 221 222 225 227 228 230 231 233 235 238 241 244 247 250 254 256 257 262 268 271 274 278
212 216 215 213 213 212 212 214 216 218 218 218 218 219 219 222 219 207 203 201 202 209 213 213 217 220 220 216 211 211 209 206 207 207 210 210 208 210 210 210 209 209 210 208 206 208 209 211 212 213 214 214 215 216 218 220 221 220 220 220 220 220 221 222 224 225 226 227 229 229 231 233 236 240 243 247 250 253 256 258 260 264 268 270 274 277
216 219 216 213 214 215 215 215 216 219 220 220 220 221 220 219 217 206 204 203 202 210 216 216 221 224 224 222 218 219 219 216 215 215 216 214 212 213 213 213 212 211 211 211 210 209 210 212 213 214 215 216 216 217 218 220 221 221 220 221 221 222 222 223 225 226 227 229 229 230 232 235 238 241 244 248 251 255 258 260 261 264 267 269 271 274
218 220 217 214 215 215 214 214 217 220 222 223 221 220 220 218 214 209 207 207 207 214 222 224 226 229 230 228 224 224 226 224 222 222 222 221 218 216 215 215 214 214 213 213 213 213 212 213 214 215 216 217 217 217 218 219 219 219 219 219 220 222 223 224 225 226 227 229 230 232 234 237 240 243 247 250 254 257 259 262 262 264 266 269 271 274
222 221 217 215 214 214 213 213 216 220 222 222 221 220 221 219 216 214 210 210 213 218 223 228 232 234 232 230 225 224 227 227 225 225 225 224 223 222 220 217 217 218 217 215 216 217 216 215 216 217 218 219 219 219 219 219 218 218 218 218 219 221 223 224 224 224 226 228 230 232 234 238 242 245 249 253 256 257 259 262 264 265 266 268 271 274
224 220 216 215 215 214 216 215 215 218 221 222 221 220 222 222 219 218 212 209 216 221 220 224 234 238 232 229 226 223 224 226 225 225 225 224 224 224 223 221 220 220 219 218 219 220 219 219 218 218 219 220 221 221 221 220 219 219 219 218 219 221 222 223 223 222 224 226 228 230 232 235 240 244 248 251 254 257 259 262 263 263 264 267 270 274
223 219 216 217 217 216 218 219 215 215 221 223 219 219 222 223 221 218 212 211 218 224 221 220 229 236 231 227 225 223 224 227 227 226 225 224 223 223 224 223 223 222 222 221 221 221 221 220 219 219 220 221 222 222 221 221 221 221 221 220 220 221 222 223 223 223 224 226 228 229 231 235 239 243 246 249 253 256 257 259 260 262 265 267 271 275
222 219 217 217 219 217 218 219 215 213 219 223 220 217 218 220 221 220 217 218 222 225 222 219 225 235 233 227 224 223 224 227 228 227 226 225 223 223 224 224 224 225 225 224 224 223 222 220 219 218 219 221 222 222 221 222 222 222 222 222 222 223 224 224 224 224 225 227 228 229 232 236 240 243 247 250 252 253 254 256 259 263 267 269 272 275
222 221 219 217 219 220 219 219 216 214 217 222 223 217 216 219 222 222 222 223 225 226 224 221 224 233 235 229 226 224 224 228 231 229 226 225 224 224 225 225 225 226 227 227 226 225 223 221 220 219 219 221 222 221 221 221 222 223 223 223 224 225 226 226 226 226 227 228 229 231 233 236 239 243 248 251 251 252 253 255 258 262 267 269 272 275
224 224 221 218 220 221 220 219 218 216 216 220 222 216 216 220 222 224 225 226 228 229 227 222 220 228 235 231 225 224 224 229 232 230 227 225 225 226 226 226 226 227 228 228 228 227 223 221 220 220 221 222 222 221 221 221 222 223 223 224 225 226 227 228 228 228 228 229 230 232 234 236 239 243 247 249 251 252 253 255 257 261 264 267 270 275
225 223 221 220 220 221 221 220 220 218 215 216 218 217 219 222 223 225 226 228 231 230 228 227 222 225 234 232 225 223 226 231 232 231 232 229 227 227 227 226 226 226 227 227 228 227 224 221 219 220 221 222 222 221 221 222 223 223 224 224 225 226 227 227 228 229 229 230 232 234 235 237 239 242 245 248 249 250 252 254 258 261 263 266 270 275
225 222 222 221 220 220 220 221 220 218 216 216 218 219 221 221 222 225 225 226 231 230 228 230 226 225 233 234 229 226 226 231 234 235 237 234 230 228 226 225 225 225 225 225 225 225 224 221 219 219 220 222 223 222 222 223 223 224 224 224 225 225 226 227 228 229 229 231 233 234 235 237 239 242 245 247 248 249 251 254 259 262 264 268 272 276
227 225 223 221 220 218 219 219 219 218 217 216 217 217 218 218 220 224 224 224 230 231 230 231 228 226 232 236 234 232 227 229 236 239 241 240 237 231 224 221 223 223 222 222 222 224 223 222 221 221 222 224 224 223 222 222 223 224 224 224 224 225 225 226 227 228 229 231 233 234 235 237 240 242 245 247 247 249 251 255 259 261 265 269 271 274
228 227 223 222 221 218 218 218 217 217 217 215 214 215 217 219 221 224 226 227 230 232 231 230 229 229 233 237 237 236 233 235 242 243 243 243 241 235 224 220 222 222 221 220 220 222 224 224 224 224 225 226 226 224 222 222 223 224 224 224 224 224 224 225 226 228 230 231 232 233 235 237 240 242 244 246 248 249 252 255 258 261 265 268 270 273
226 227 224 222 221 218 218 219 219 218 218 218 216 218 221 221 223 226 227 229 233 233 229 225 226 231 233 236 236 234 233 238 243 243 243 243 240 234 226 223 223 222 221 221 220 221 224 225 226 227 227 227 226 223 222 223 223 225 226 225 224 224 224 225 227 228 230 232 232 234 235 237 239 242 244 246 249 251 252 255 258 261 264 267 271 273
229 232 226 221 221 219 218 219 219 219 220 220 218 220 223 223 226 230 232 234 235 235 231 225 228 234 234 234 233 231 233 238 242 243 243 242 235 228 225 224 225 224 222 222 222 222 223 225 226 227 227 226 225 223 223 224 225 225 227 227 226 225 226 227 228 230 231 232 234 235 236 237 239 241 244 247 249 250 252 255 258 262 265 268 271 273
230 233 226 220 221 220 219 218 218 220 221 219 218 221 224 225 228 232 234 236 234 234 232 227 231 235 232 234 235 235 239 240 240 240 239 238 232 224 224 225 226 226 224 223 224 224 222 223 224 225 226 226 226 225 225 225 226 226 227 228 228 227 228 229 229 231 232 234 235 236 237 238 239 242 245 247 249 250 252 256 260 263 267 269 271 273
232 234 226 220 221 220 219 220 220 221 222 220 221 222 222 225 229 231 231 230 229 233 233 230 232 231 228 232 235 234 237 236 235 237 238 237 230 224 225 226 226 225 223 223 225 225 223 222 223 224 225 226 226 226 226 226 226 227 228 228 228 228 228 229 230 231 233 234 236 238 238 239 241 243 246 248 249 251 254 258 261 264 267 269 270 272
232 236 229 221 222 220 218 220 221 221 222 223 225 222 220 223 226 226 227 228 229 233 235 234 235 233 228 229 227 225 226 226 227 231 235 235 230 227 227 226 224 224 224 225 226 226 224 222 222 223 223 224 225 227 227 227 227 228 228 229 229 229 229 230 231 231 232 233 236 238 239 240 243 245 247 249 251 253 255 259 261 263 266 268 269 270
229 234 232 222 221 219 217 219 220 219 219 223 226 225 223 225 226 226 228 231 232 234 236 236 236 233 229 228 226 222 219 220 226 232 236 239 237 233 229 225 224 224 225 227 227 227 226 224 223 222 222 223 224 226 228 229 229 229 229 230 230 230 230 230 230 231 232 233 236 238 240 242 244 246 248 251 252 254 257 260 262 263 265 268 269 270
229 231 232 225 218 217 218 219 220 219 217 219 222 223 223 224 226 228 230 231 232 235 236 236 236 234 230 229 227 225 223 227 235 240 240 242 243 239 232 227 226 226 228 229 230 229 226 224 223 221 221 222 224 226 228 229 230 230 231 231 229 229 229 229 230 231 232 234 235 237 240 243 245 247 250 252 253 255 257 259 262 264 266 268 268 270
228 229 230 226 220 220 222 221 221 222 220 219 221 223 223 223 224 227 230 229 230 234 235 237 239 235 229 228 226 226 228 231 236 241 242 244 245 243 236 231 229 228 229 231 230 228 226 224 223 221 220 221 223 225 227 228 230 230 231 231 230 229 228 228 229 230 232 234 236 238 241 244 247 249 252 253 255 257 259 260 262 264 265 266 267 269
227 229 229 229 227 226 225 223 223 223 223 224 224 224 224 225 225 227 230 229 230 234 235 238 241 236 230 228 223 222 229 232 233 239 244 244 243 240 235 231 230 229 230 230 229 229 227 224 222 221 221 222 223 225 226 227 228 229 230 230 230 229 227 227 229 230 232 235 237 240 242 246 249 252 253 255 257 259 260 261 262 263 264 266 267 268
224 228 229 230 233 230 227 226 224 223 223 225 226 225 224 225 226 229 232 232 233 234 233 236 239 235 230 226 221 223 231 231 232 237 241 241 240 237 234 232 232 231 231 230 230 229 228 225 223 222 224 225 225 225 226 226 226 227 228 228 228 228 227 228 230 232 235 237 239 242 245 249 252 254 256 258 260 260 260 262 263 263 264 266 267 267
221 226 226 228 230 228 226 224 222 221 222 225 227 226 226 226 227 229 232 233 234 235 233 235 238 235 231 229 228 233 232 225 227 233 236 236 238 238 234 231 232 231 229 229 229 228 228 226 223 222 224 226 226 226 226 227 226 226 227 227 228 228 229 230 232 235 237 240 242 245 247 250 253 255 257 260 262 262 261 262 264 264 264 265 266 267
223 225 225 226 227 226 225 224 222 223 224 226 228 228 227 227 227 228 230 232 234 234 234 236 238 236 233 230 228 229 225 222 228 234 234 235 240 240 236 232 231 230 227 227 227 227 228 226 222 221 223 225 225 226 227 227 227 227 228 228 229 229 230 232 234 236 239 242 245 247 249 251 254 257 259 261 264 264 263 262 264 264 264 264 266 267
228 228 226 228 231 231 230 229 227 227 226 227 227 228 229 228 228 229 230 231 233 235 235 237 239 238 233 228 225 224 226 229 233 234 235 238 242 241 237 234 232 230 228 227 228 228 228 226 221 220 221 223 224 226 227 227 227 228 229 229 229 230 231 233 235 237 240 244 247 249 251 253 256 258 260 262 264 265 265 264 264 264 264 265 266 268
231 231 229 230 234 236 236 234 231 229 229 229 228 228 229 230 229 229 231 232 233 236 237 236 237 237 234 231 227 226 228 231 233 233 236 240 241 239 236 234 233 231 229 229 230 230 229 226 221 219 220 221 223 225 227 227 227 228 228 229 230 231 232 233 236 239 243 247 249 252 254 256 259 261 262 264 265 266 267 266 265 265 265 266 268 269
232 233 232 233 235 236 237 237 235 233 232 231 230 229 229 230 230 230 232 233 234 236 239 238 236 236 236 234 233 232 230 231 234 236 239 241 242 241 238 236 237 235 231 229 230 231 231 227 221 219 219 220 222 224 226 227 228 228 228 229 231 231 232 235 239 243 247 251 253 256 258 260 262 264 264 265 266 268 268 268 267 268 269 269 270 271
231 234 234 235 237 237 236 236 237 236 234 233 232 232 231 231 231 232 234 234 235 237 240 240 240 239 237 236 236 237 237 237 239 240 240 241 242 243 241 239 240 239 234 231 230 231 231 226 220 218 218 220 222 224 225 227 228 228 228 230 231 232 234 237 243 247 250 254 257 259 262 264 265 266 266 267 268 270 270 270 270 272 272 270 270 271
229 233 234 236 238 237 235 235 236 237 237 235 233 233 233 233 233 233 233 233 235 237 239 240 242 241 239 238 239 238 238 240 241 240 240 240 241 243 242 240 240 240 235 232 230 229 227 222 219 217 218 220 222 223 224 227 227 227 228 229 230 232 235 239 244 249 253 256 260 261 264 266 267 268 268 269 271 272 273 273 272 273 273 271 269 270
227 231 232 235 238 237 234 234 235 237 238 238 235 232 232 233 233 233 233 233 234 235 237 238 240 241 240 240 239 238 237 239 239 238 239 240 240 241 241 240 239 238 233 229 227 226 223 219 218 218 218 219 221 222 224 226 227 227 228 229 231 234 237 241 246 251 255 258 261 263 265 268 270 271 271 272 273 275 275 275 274 273 273 272 270 268
226 228 230 233 237 238 236 235 235 236 237 237 235 232 232 233 234 235 235 234 234 234 236 237 239 241 241 239 238 237 237 237 237 236 238 239 239 239 240 240 239 236 230 227 225 223 221 219 218 219 219 219 221 222 225 226 226 227 228 229 232 235 238 243 247 252 256 259 262 265 267 269 272 273 273 274 275 276 277 276 275 273 273 273 271 268
222 224 229 233 237 238 236 234 235 236 235 237 236 234 233 234 234 236 237 236 235 234 236 238 240 241 240 237 237 237 237 236 236 235 235 237 236 236 238 238 236 233 229 225 223 221 220 218 219 219 219 220 222 223 225 226 227 228 228 230 232 234 238 242 247 253 257 260 263 266 268 270 273 275 275 276 278 278 278 278 276 275 274 274 271 268
222 224 230 235 237 238 234 230 233 235 236 238 240 237 236 235 235 237 238 238 237 236 236 238 238 239 239 238 237 237 236 235 235 233 233 234 233 234 235 233 229 227 226 225 222 220 220 220 220 220 220 221 223 224 225 226 227 228 229 230 231 234 238 243 249 254 259 262 265 268 270 272 275 278 279 279 279 279 280 279 278 277 275 274 271 268
225 226 230 233 236 236 234 231 234 238 240 241 241 241 240 238 235 236 238 237 237 237 237 237 237 238 238 237 237 236 235 234 233 232 231 232 232 232 232 230 227 225 225 225 223 222 222 222 221 220 221 222 223 224 225 226 227 228 228 229 233 236 240 246 251 256 261 264 266 269 272 276 279 281 283 282 281 281 281 281 280 278 276 274 272 269
225 226 229 231 232 234 236 236 237 240 242 241 240 240 241 240 237 236 239 239 237 237 238 237 236 236 235 236 237 236 234 233 233 231 230 231 230 230 231 231 229 228 226 227 226 224 223 222 220 220 221 221 222 223 225 226 228 228 228 230 235 239 243 249 254 258 262 265 267 270 275 279 282 285 286 285 284 283 283 282 280 277 275 274 272 269
224 225 227 228 229 231 236 239 237 238 237 235 236 242 246 246 242 240 241 240 238 237 237 236 235 234 233 235 236 233 231 233 235 233 231 229 229 229 230 231 230 228 226 226 226 225 223 222 220 220 220 221 222 223 225 225 227 227 228 231 236 240 245 251 256 261 264 266 269 273 277 281 284 287 288 288 287 286 285 282 278 277 277 276 273 269
222 224 226 229 229 228 232 237 237 238 235 230 237 250 254 250 245 241 240 239 238 237 236 235 234 233 232 233 232 229 230 234 235 233 229 227 226 227 227 227 227 226 224 224 225 225 223 221 218 218 219 220 221 222 222 223 225 227 228 232 237 242 247 253 258 263 266 268 271 275 278 282 286 288 289 289 288 287 284 280 278 278 278 277 274 270
219 221 223 227 227 226 229 235 238 239 239 239 247 257 258 251 242 236 236 238 240 243 242 238 235 233 231 230 228 228 231 234 234 232 226 223 223 224 223 223 223 223 222 222 223 223 222 219 217 217 218 219 219 219 220 223 227 229 230 234 239 244 249 254 259 264 267 270 274 277 280 284 287 289 289 289 288 286 283 280 279 278 278 277 274 270
218 220 222 225 227 227 229 234 238 238 240 246 255 259 257 249 238 232 235 240 245 249 249 244 239 235 231 227 227 228 230 232 231 228 222 220 220 220 220 221 220 220 220 219 221 222 220 218 216 215 215 217 218 220 223 226 229 230 232 236 240 245 251 256 261 266 269 272 275 279 282 285 287 288 289 289 288 284 282 281 280 278 278 276 272 270
217 219 222 225 227 228 230 234 238 237 238 246 256 258 252 243 236 237 243 247 248 248 246 243 240 236 231 227 226 227 226 225 225 223 221 220 218 216 216 218 217 218 218 218 220 220 217 215 214 213 214 217 219 222 225 227 228 230 234 238 243 248 253 258 264 269 271 272 276 281 284 285 286 287 288 289 287 283 281 281 280 279 278 276 272 270
217 219 222 224 224 227 230 233 236 236 236 244 253 253 247 243 243 247 249 248 248 248 245 241 238 235 230 226 222 221 220 220 221 220 219 217 216 214 215 215 215 215 216 216 216 214 212 211 212 212 215 219 221 224 226 227 229 232 236 241 247 252 257 262 267 271 273 274 277 281 283 284 284 285 287 287 284 280 279 281 280 278 277 275 272 271
217 220 223 223 222 226 230 232 236 237 236 240 245 248 250 252 252 251 249 247 246 247 244 239 236 232 227 221 216 214 213 214 216 216 214 213 213 212 211 211 211 212 211 210 210 209 208 210 212 214 216 219 222 224 226 228 230 234 240 246 251 257 262 265 269 273 276 277 279 281 282 283 284 285 286 285 281 278 278 278 277 277 275 273 272 271
217 220 224 224 224 228 233 236 238 238 236 237 239 245 255 258 252 247 245 244 242 242 240 236 231 224 217 212 208 206 205 206 208 209 208 207 207 206 204 202 203 204 203 204 205 206 207 209 211 213 215 219 222 225 229 232 235 239 246 252 257 260 263 266 270 274 277 278 279 280 281 283 284 284 283 281 278 277 276 275 275 274 274 273 272 270
214 218 223 225 225 228 233 238 238 237 236 235 237 246 256 255 247 241 240 237 233 232 231 227 218 209 204 202 200 197 196 197 198 198 198 198 198 197 196 196 198 199 200 201 204 206 208 209 211 214 218 222 227 231 235 238 242 247 253 257 259 260 263 267 272 276 278 279 280 280 281 283 283 281 279 278 277 276 274 273 273 273 274 274 271 267
211 218 221 221 222 225 230 236 238 238 237 234 235 246 254 247 238 234 232 229 225 220 215 210 201 192 189 189 188 187 188 188 188 189 190 189 188 189 191 193 197 200 202 204 207 209 211 214 216 220 224 227 232 237 241 244 248 253 256 258 259 260 265 270 275 277 279 279 280 281 282 282 281 279 278 277 276 275 274 273 273 273 274 273 269 265
217 224 224 221 221 224 230 236 237 236 236 232 229 236 239 230 221 218 213 210 208 202 192 184 181 179 178 177 178 178 178 180 182 183 184 186 187 188 190 194 198 201 204 206 208 212 217 221 224 228 232 235 239 244 246 249 252 254 256 258 260 264 269 274 276 277 278 279 281 282 282 281 279 278 278 277 276 275 274 272 272 273 273 271 268 265
221 223 223 223 223 223 228 232 229 228 230 228 224 224 222 214 205 201 196 190 184 178 170 164 164 167 168 168 171 172 174 177 180 181 183 187 189 191 193 197 200 203 206 209 213 219 224 228 231 235 238 241 245 247 248 249 252 254 256 261 265 268 271 273 275 277 278 280 282 282 280 279 279 278 278 276 276 275 274 273 273 272 272 271 270 267
221 219 221 223 222 223 225 225 221 220 222 220 215 211 210 204 193 188 186 181 175 171 169 166 164 165 164 165 169 172 175 179 182 184 187 191 194 196 199 201 205 208 211 216 222 228 231 234 237 240 241 244 246 248 248 250 253 257 260 264 267 269 271 272 275 277 278 279 280 279 278 278 278 277 276 276 275 274 273 273 273 273 271 271 269 267
223 223 226 225 224 227 228 224 220 219 218 212 207 203 201 195 186 181 180 178 175 173 173 172 171 170 170 171 174 176 178 181 185 188 191 195 199 203 205 208 212 215 220 225 230 234 236 238 240 242 244 245 248 249 251 253 257 260 263 266 268 269 271 273 275 277 278 277 277 276 276 277 277 276 275 276 275 273 270 271 272 273 273 271 269 268